Погода в Когалыме

Погода в Когалыме : погода сейчас, прогноз погоды и архив. Всё, что Вы хотите узнать о погоде в Когалыме!

Хотите узнать прогноз погоды в Когалыме? Тогда Вам сюда: Погода в Когалыме

Поиск расширенной информации на нашем сайте:

Другие новости

Новости СМИ2

Главная страница сайта

Новости сайта

03.07.2017

Напоминаем, что на нашем специализированном сайте Метеоцентр.Азия вы можете получить высокодетализированные автоматические прогнозы погоды по пунктам России, СНГ и мира в авиационном формате (включающие направление и скорость ветра, видимость, явления погоды, количество и форму облачности, нижнюю и верхнюю границу облачности).


Погода в Когалыме - сегодня

Время (UTC), дата Ветер
(°,м/с) 
Видим.   Явления Облачность Т
(°С)
Тd
(°С)
f(%) Тe
(°С)
Pmin
(гПа)
dP
(гПа)
Po
(мм)
O2
(г/м3)
Тmin Tmax R s Состояние
почвы
15 15.05.18 350 (С) 6{10}  40000 м    4/0 верхняя 
[Ci fib]
-2 -8.2 62 -6  1010.3  1.4  751  306    +0.4  0.6     
18 15.05.18 350 (С) 7{12}  40000 м    6/4 600 м средняя 
[Sc|Ac trans]
-4 -8.1 73 -9  1011.2  0.9  752  308           
03 16.05.18 350 (С) 6{10}  6000 м  слаб. ливневой снег  10/10 540 м кучево-дожд. 
[Cb cap]
-8.8 -12.2 76 -14  1015.3  1.4  755  315  -8.9    0.3  <0.5  сухой снег
50-90% 
15 16.05.18 340 (С) 3{10}  40000 м    8/4 1000 м кучево-дожд., средняя 
[Cb cap|Ac trans]
-4.7 -11.9 57 -7  1018.1  -0.2  757  312    -4.5  0.0     
00 17.05.18 270 (З) 4600 м  слаб. ливневой снег  10/5 300 м кучево-дожд., средняя 
[Cb cap|As trans]
-5.5 -6.9 90 -8  1015  -0.8  755  311           
03 17.05.18 300 (СЗ) 10 км  слаб. ливневой снег  10/4 300 м кучево-дожд., средняя 
[Cb cap|As op]
-4.5 -8.4 74 -8  1015.9  0.9  755  310  -6    0.5  равномерный
сухой снег
100% 
06 17.05.18 300 (СЗ) 40000 м  {ливн. осадки}  6/4 600 м средняя 
[Sc|Ac trans]
-2.6 -10 57 -5  1015.2  -0.6  755  308           
09 17.05.18 270 (З) 40000 м  {ливн. осадки}  6/4 1000 м средняя 
[Sc|Ac trans]
-0.8 -10.2 49 -3  1014.7  -0.5  755  306           
15 17.05.18 050 (СВ) 40000 м  в посл. час ливневой снег  9/3 1000 м кучево-дожд., средняя 
[Cb cap|Ac trans]
-3 -8 68 -5  1012  -2.4  753  307    -0.6  0.3     
18 17.05.18 050 (СВ) 40000 м  {ливн. осадки}  8/3 1000 м средняя 
[Sc|Ac trans]
-3.8 -7.5 75 -5  1011.5  -0.5  752  308           
21 17.05.18 350 (С) 40000 м    6/0 средняя 
[Ac trans]
-5.4 -7.9 83 -9  1010.9  -0.7  752  310           
00 18.05.18 010 (С) 40000 м    6/3 1000 м средняя 
[Sc|Ac trans]
-5.4 -8.7 78 -9  1011.1  0.2  752  310           
03 18.05.18 020 (С) 7-11{12}  40000 м    3/3 600 м 
[Sc]
-3.1 -8.5 66 -8  1012.6  1.6  753  308  -5.7      мокрый или
старый снег
50-90% 
12 18.05.18 350 (С) 6-10{12}  40000 м    ясно 
-1.2 -9.8 52 -5  1019.8  2.2  758  308           
18 18.05.18 280 (З) 2{10}  40000 м    ясно 
-5 -9 73 -6  1023  0.5  761  313           
21 18.05.18 280 (З) 40000 м    3/0 верхняя 
[Ci fib]
-4.4 -7.5 79 -6  1023.1  0.1  761  312           
00 19.05.18 310 (СЗ) 40000 м    10/10 600 м 
[Sc]
-2.6 -5.9 78 -5  1023.3  0.3  761  310           
03 19.05.18 290 (З) 40000 м    10/10 360 м 
[St]
-2.3 -5.3 80 -5  1022.8  -0.5  761  310  -5.3      мокрый или
старый снег
50-90% 
06 19.05.18 270 (З) 40000 м    10/10 300 м 
[St]
-1.8 -5.1 78 -5  1023.4  0.6  761  309           
09 19.05.18 280 (З) 40000 м    5/5 600 м 
[Sc]
+1.2 -4.7 65 -1  1023  -0.3  761  306           
12 19.05.18 220 (ЮЗ) 40000 м    4/0 верхняя 
[Ci fib]
+4.5 -3.6 56 +3  1022.2  -0.7  760  302           
18 19.05.18 170 (Ю) 40000 м    4/0 верхняя 
[Ci fib]
-0.8 -3.3 83 -2  1020.8  -0.7  759  307           
21 19.05.18 150 (ЮВ) 40000 м    4/0 верхняя 
[Ci fib]
-1.5 -3.7 85 -3  1018.5  -2.3  757  307           
00 20.05.18 160 (Ю) 40000 м    5/0 верхняя 
[Ci fib]
-1 -3.2 85 -4  1015.7  -2.7  755  306           
03 20.05.18 150 (ЮВ) 5{10}  40000 м    8/0 средняя 
[Ac trans]
+4.8 -3.2 56 +3  1013  -2.5  754  299  -1.7      мокрый или
старый снег
10-40% 
Время (UTC), дата Ветер
(°,м/с) 
Видим.   Явления Облачность Т
(°С)
Тd
(°С)
f(%) Тe
(°С)
Pmin
(гПа)
dP
(гПа)
Po
(мм)
O2
(г/м3)
Тmin Tmax R s Состояние
почвы

Для получения пояснительной информации подведите курсор к названию столбца.

ПОГОДА в Когалыме - архив

Всё, что Вы хотите узнать о погоде в Когалыме - удобно и подробно!

Выберите нужную дату (начиная с 1 января 2015* года) и нажмите кнопку "Найти".
Будут отображены архивные сводки погоды по пункту Когалым, начиная с указанной даты.


Отображать данные в формате CSV (для использования в таблицах Excel)


Внимание! Наш архив погоды предназначен исключительно для личного некоммерческого использования в познавательных целях. Если Вам необходимы официальные справки о состоянии погоды (для производственных, юридических, коммерческих и т.п. целей), обращайтесь в органы Росгидромета.

*Примечание: данная дата относится к архиву по метеостанциям СССР (Россия, СНГ, Балтия).
Архив по метеостанциям Зарубежной Европы и Азии (кроме Китая) хранится 10 дней, по другим регионам земного шара (Китай, Африка, Америка, Австралия, Океания) - 1 день.

Когалым - район местоположения метеостанции


Название, широта, долгота, высота метеостанции:
Когалым 62.2°ш. 74.5°д. 67 м над ур. моря [Российская Федерация]

Дополнительная информация

В oтличие oт бoльшинства пoгoдных сайтoв мы публикуем пoдрoбную метеoинфoрмацию в детальнoм прoфессиoнальнoм фoрмате.

Характеристики температуры и влажнoсти вoздуха измеряются на высoте 2 м в тени вдали oт зданий и деревьев.
Скoрoсть ветра измеряется на высoте 10 м (на урoвне рoста челoвека скoрoсть ветра ниже в 1.5-2 раза). Если метеoстанция нахoдится в гoрoде или в лесу, тo скoрoсть ветра занижена на 2-4 м/с пo сравнению с oткрытым местoм. Скoрoсть ветра над акватoриями крупных рек и oзёр, а также на вершинах хoлмoв на 2-5 м/с выше, чем в oбычных услoвиях.
Атмoсфернoе давление в разных тoчках местнoсти мoжет значительнo oтличаться oт давления на метеoстанции, в зависимoсти oт услoвий рельефа (при пoдъёме на 10 м давление пoнижается примернo на 1 мм рт.ст.).